User: anonymous   Login
Location: Bamazo
(6.7448°N, 10.8189°W)
Time: 01:51:57
(UTC+00:00)
Language:

Palapa 6 Rocket - Orbit

View from above orbital plane
View from above orbital plane
View from above satellite
View from above satellite

Ground track
Ground track

The orbit data is extracted from the following two-line orbital elements,

1 20571U 90034B   20334.34663410 +.00001044 +00000-0 +10987-3 0  9997
2 20571 022.7442 206.6282 0506494 024.6904 337.6949 14.12477221571002
Epoch (UTC): 29 November 2020 08:19:09
Eccentricity: 0.0506494
inclination: 22.7442°
perigee height: 485 km
apogee height: 1217 km
right ascension of ascending node: 206.6282°
argument of perigee: 24.6904°
revolutions per day: 14.12477221
mean anomaly at epoch: 337.6949°
orbit number at epoch: 57100

The dashed part of the orbit path shows where the satellite is in the earth's shadow,  

DLR